DW0707 Weather Reports


Display with metric or nautical units.
time (UTC)temp
F
wind
direction
speed
MPH
gust
MPH
rain 1hr
in
rain 24hr
in
rain mn
in
humidity
%
barometer
mb
20191211005206 47 136 0.0 2.0 0.00 0.17 0.17 99 1018.1
20191211004705 47 108 0.0 5.0 0.00 0.17 0.17 99 1018.1
20191211004206 47 132 0.0 8.0 0.00 0.17 0.17 99 1018.1
20191211003705 47 150 1.0 8.0 0.00 0.17 0.17 99 1018.1
20191211003206 47 131 1.0 9.0 0.00 0.17 0.17 99 1018.1
20191211002728 47 111 1.0 9.0 0.00 0.17 0.17 99 1018.1
20191211002205 47 126 1.0 9.0 0.00 0.17 0.17 99 1018.0
20191211001705 47 96 0.0 6.0 0.00 0.17 0.17 99 1018.1
20191211001206 47 117 0.0 6.0 0.00 0.17 0.17 99 1018.1
20191211000705 47 103 0.0 6.0 0.00 0.17 0.17 99 1018.0
20191211000205 47 139 0.0 0.0 0.01 0.18 0.17 99 1018.2
20191210235706 47 152 0.0 5.0 0.01 0.18 0.17 99 1018.1
20191210235210 47 96 0.0 5.0 0.01 0.18 0.17 99 1018.1
20191210234705 47 146 0.0 8.0 0.01 0.18 0.17 99 1018.2
20191210234205 47 145 1.0 8.0 0.01 0.18 0.17 99 1018.1
20191210233705 47 136 1.0 8.0 0.01 0.18 0.17 99 1018.2
20191210233206 47 151 0.0 8.0 0.02 0.18 0.17 99 1018.1
20191210232706 46 92 0.0 0.0 0.02 0.18 0.17 99 1018.2
20191210232205 46 153 0.0 6.0 0.02 0.18 0.17 99 1018.3
20191210231729 46 135 0.0 6.0 0.02 0.18 0.17 99 1018.4
20191210231205 46 137 0.0 6.0 0.02 0.18 0.17 99 1018.4
20191210230708 46 132 0.0 7.0 0.02 0.18 0.17 99 1018.3
20191210230207 46 87 0.0 7.0 0.01 0.17 0.16 99 1018.3
20191210225705 46 123 0.0 5.0 0.02 0.17 0.16 99 1018.3
20191210225205 46 117 0.0 8.0 0.02 0.17 0.16 99 1018.3
20191210224707 46 125 1.0 8.0 0.02 0.17 0.16 99 1018.3
20191210224207 46 114 1.0 10.0 0.02 0.17 0.16 99 1018.3
20191210223713 46 128 1.0 10.0 0.02 0.17 0.16 99 1018.3
20191210223205 46 109 0.0 9.0 0.01 0.16 0.15 99 1018.3
20191210222710 46 135 0.0 6.0 0.01 0.16 0.15 99 1018.3
20191210222206 46 160 0.0 7.0 0.01 0.16 0.15 99 1018.4
20191210221705 46 100 1.0 7.0 0.01 0.16 0.15 99 1018.4
20191210221210 46 123 1.0 7.0 0.01 0.16 0.15 99 1018.4
20191210220705 46 107 1.0 6.0 0.01 0.16 0.15 99 1018.4
20191210220206 46 132 0.0 0.0 0.00 0.15 0.14 99 1018.4
20191210215705 46 89 0.0 6.0 0.00 0.15 0.14 99 1018.5
20191210215208 46 103 0.0 7.0 0.00 0.15 0.14 99 1018.5
20191210214705 46 113 1.0 7.0 0.00 0.15 0.14 99 1018.5
20191210214215 46 118 0.0 7.0 0.00 0.15 0.14 99 1018.6
20191210213708 46 120 0.0 7.0 0.00 0.15 0.14 99 1018.6
20191210213206 46 88 0.0 7.0 0.00 0.15 0.14 99 1018.5
20191210212710 45 101 0.0 10.0 0.01 0.15 0.14 99 1018.5
20191210212206 45 128 1.0 10.0 0.01 0.15 0.14 99 1018.5
20191210211715 45 151 3.0 10.0 0.01 0.15 0.14 98 1018.6
20191210211212 45 111 2.0 8.0 0.01 0.15 0.14 98 1018.6
20191210210705 45 101 1.0 8.0 0.01 0.15 0.14 98 1018.7
20191210210208 45 112 1.0 9.0 0.01 0.15 0.14 98 1018.7
20191210205713 45 91 2.0 12.0 0.01 0.15 0.14 98 1018.8
20191210205205 45 96 3.0 12.0 0.01 0.15 0.14 98 1018.9
20191210204706 45 125 3.0 12.0 0.01 0.15 0.14 98 1018.9
20191210204205 45 86 3.0 11.0 0.01 0.15 0.14 98 1018.9
20191210203708 45 126 4.0 11.0 0.01 0.15 0.14 98 1019.0
20191210203206 45 82 4.0 11.0 0.00 0.14 0.13 98 1019.0
20191210202713 45 112 5.0 10.0 0.00 0.14 0.13 98 1019.0
20191210202209 45 136 5.0 10.0 0.00 0.14 0.13 98 1019.0
20191210201706 45 147 5.0 11.0 0.00 0.14 0.13 98 1019.0
20191210201209 45 66 5.0 12.0 0.01 0.14 0.13 98 1019.0
20191210200705 45 138 5.0 13.0 0.01 0.14 0.13 98 1019.1
20191210200206 45 86 5.0 13.0 0.01 0.14 0.13 98 1019.1
20191210195707 45 118 6.0 11.0 0.01 0.14 0.13 98 1019.1
20191210195205 45 132 7.0 11.0 0.01 0.14 0.13 98 1019.2
20191210194707 44 90 6.0 11.0 0.01 0.14 0.13 98 1019.2
20191210194205 45 112 6.0 15.0 0.01 0.14 0.13 98 1019.2
20191210193705 44 124 7.0 15.0 0.01 0.14 0.13 98 1019.2
20191210193206 44 105 7.0 15.0 0.01 0.14 0.13 98 1019.3
20191210192706 44 96 6.0 14.0 0.01 0.14 0.13 98 1019.3
20191210192205 44 122 5.0 14.0 0.01 0.14 0.13 98 1019.2
20191210191208 44 138 6.0 14.0 0.01 0.13 0.12 98 1019.4
20191210190716 44 109 6.0 14.0 0.02 0.13 0.12 98 1019.4
20191210190205 44 119 6.0 13.0 0.02 0.13 0.12 98 1019.4
20191210185706 44 129 6.0 13.0 0.02 0.13 0.12 98 1019.5
20191210185219 44 113 6.0 13.0 0.02 0.13 0.12 98 1019.5
20191210184711 44 115 6.0 13.0 0.02 0.13 0.12 98 1019.5
20191210184205 44 110 6.0 13.0 0.02 0.13 0.12 98 1019.5
20191210183714 44 79 6.0 13.0 0.02 0.13 0.12 98 1019.5
20191210183205 44 95 6.0 13.0 0.03 0.13 0.12 98 1019.6
20191210182705 44 96 6.0 13.0 0.03 0.13 0.12 98 1019.7
20191210182227 44 109 6.0 13.0 0.03 0.13 0.12 98 1019.7
20191210181731 44 107 6.0 11.0 0.02 0.12 0.11 98 1019.7
20191210181210 44 115 6.0 12.0 0.01 0.11 0.10 98 1019.7
20191210180706 44 98 6.0 12.0 0.01 0.11 0.10 98 1019.6
20191210180206 44 105 5.0 12.0 0.02 0.11 0.10 98 1019.6
20191210175729 44 105 5.0 12.0 0.02 0.11 0.10 98 1019.5
20191210175208 44 90 5.0 14.0 0.02 0.11 0.10 97 1019.5
20191210174705 44 100 6.0 14.0 0.02 0.11 0.10 97 1019.5
20191210174206 44 132 7.0 13.0 0.03 0.11 0.10 98 1019.5
20191210173705 44 93 7.0 13.0 0.04 0.11 0.10 98 1019.5
20191210173214 44 130 6.0 13.0 0.03 0.10 0.09 97 1019.5
20191210172705 44 113 6.0 13.0 0.03 0.10 0.09 97 1019.6
20191210172207 44 104 7.0 13.0 0.04 0.10 0.09 97 1019.5
20191210171706 44 115 7.0 13.0 0.04 0.10 0.09 97 1019.5
20191210171206 44 94 7.0 12.0 0.05 0.10 0.09 97 1019.5
20191210170707 44 109 7.0 13.0 0.05 0.10 0.09 97 1019.4
20191210170206 44 130 7.0 14.0 0.05 0.09 0.08 97 1019.4
20191210165713 44 94 8.0 14.0 0.06 0.09 0.08 98 1019.5
20191210165206 44 96 7.0 15.0 0.07 0.09 0.08 97 1019.5
20191210164714 44 118 6.0 15.0 0.07 0.09 0.08 97 1019.4
20191210164205 44 92 6.0 14.0 0.07 0.08 0.07 97 1019.4
20191210163705 44 135 6.0 14.0 0.06 0.07 0.06 97 1019.5
20191210163210 44 112 5.0 14.0 0.06 0.07 0.06 97 1019.5
20191210162717 44 118 5.0 12.0 0.06 0.07 0.06 97 1019.5
20191210162208 44 123 5.0 12.0 0.05 0.06 0.05 97 1019.5
20191210161705 44 148 4.0 12.0 0.05 0.06 0.05 97 1019.5
20191210161211 44 120 4.0 13.0 0.04 0.05 0.04 97 1019.5
20191210160708 44 97 6.0 13.0 0.04 0.05 0.04 97 1019.5
20191210160206 44 92 6.0 14.0 0.02 0.03 0.02 96 1019.5
20191210155705 44 96 6.0 14.0 0.02 0.03 0.02 96 1019.4
20191210155206 44 73 7.0 14.0 0.01 0.02 0.01 96 1019.4
20191210154706 44 130 6.0 13.0 0.00 0.01 0.00 96 1019.4
20191210154206 45 103 6.0 13.0 0.00 0.01 0.00 95 1019.5
20191210153731 45 146 5.0 13.0 0.00 0.01 0.00 95 1019.4
20191210153214 45 87 5.0 13.0 0.00 0.01 0.00 95 1019.3
20191210152705 45 123 5.0 12.0 0.00 0.01 0.00 94 1019.3
20191210152218 45 147 4.0 12.0 0.00 0.01 0.00 94 1019.4
20191210151706 45 128 4.0 15.0 0.00 0.01 0.00 94 1019.3
20191210151205 45 101 6.0 15.0 0.00 0.01 0.00 94 1019.4
20191210150708 45 84 6.0 15.0 0.00 0.01 0.00 94 1019.4
20191210150206 45 106 7.0 14.0 0.00 0.01 0.00 93 1019.4
20191210145705 45 119 7.0 14.0 0.00 0.01 0.00 93 1019.3
20191210145206 45 123 7.0 14.0 0.00 0.01 0.00 93 1019.4
20191210144711 45 125 5.0 14.0 0.00 0.01 0.00 93 1019.4
20191210144206 45 120 3.0 14.0 0.00 0.01 0.00 93 1019.5
20191210143705 45 128 2.0 13.0 0.00 0.01 0.00 93 1019.5
20191210143206 45 109 3.0 13.0 0.00 0.01 0.00 93 1019.5
20191210142718 45 149 2.0 13.0 0.00 0.01 0.00 93 1019.5
20191210142206 45 65 1.0 13.0 0.00 0.01 0.00 93 1019.4
20191210141706 45 85 2.0 13.0 0.00 0.01 0.00 93 1019.5
20191210141205 45 109 4.0 14.0 0.00 0.01 0.00 93 1019.5
20191210140708 45 114 5.0 14.0 0.00 0.01 0.00 93 1019.5
20191210140206 45 119 4.0 13.0 0.00 0.01 0.00 93 1019.6
20191210135708 45 91 4.0 13.0 0.00 0.01 0.00 93 1019.5
20191210135206 45 84 5.0 13.0 0.00 0.01 0.00 93 1019.6
20191210134707 45 90 3.0 11.0 0.00 0.01 0.00 93 1019.7
20191210134206 45 93 4.0 11.0 0.00 0.01 0.00 94 1019.8
20191210133708 45 89 5.0 11.0 0.00 0.01 0.00 94 1019.8
20191210133218 45 97 4.0 11.0 0.00 0.01 0.00 94 1019.8
20191210132705 44 142 5.0 11.0 0.00 0.01 0.00 94 1019.8
20191210132206 44 109 4.0 11.0 0.00 0.01 0.00 94 1019.9
20191210131708 44 94 4.0 11.0 0.00 0.01 0.00 94 1019.8
20191210131206 44 101 5.0 12.0 0.00 0.01 0.00 94 1019.8
20191210130707 44 114 6.0 12.0 0.00 0.01 0.00 94 1019.9
20191210130206 44 87 7.0 12.0 0.00 0.01 0.00 94 1020.0
20191210125706 44 76 5.0 11.0 0.00 0.01 0.00 95 1020.0
20191210125211 44 85 4.0 11.0 0.00 0.01 0.00 95 1020.0
20191210124708 44 93 4.0 11.0 0.00 0.01 0.00 95 1020.0
20191210124206 44 84 4.0 11.0 0.00 0.01 0.00 95 1020.1
20191210123705 44 113 4.0 11.0 0.00 0.01 0.00 95 1020.1
20191210123206 44 83 4.0 11.0 0.00 0.01 0.00 94 1020.2
20191210122712 44 74 5.0 11.0 0.00 0.01 0.00 95 1020.2
20191210122206 44 73 5.0 13.0 0.00 0.01 0.00 94 1020.2
20191210121706 44 95 4.0 13.0 0.00 0.01 0.00 95 1020.3
20191210121212 44 101 4.0 10.0 0.00 0.01 0.00 95 1020.4
20191210120706 44 101 4.0 10.0 0.00 0.01 0.00 95 1020.4
20191210120206 44 100 3.0 7.0 0.00 0.01 0.00 95 1020.5
20191210115706 44 86 1.0 9.0 0.00 0.01 0.00 95 1020.5
20191210115206 44 74 2.0 10.0 0.00 0.01 0.00 95 1020.6
20191210114718 44 86 4.0 10.0 0.00 0.01 0.00 95 1020.5
20191210114208 44 105 5.0 10.0 0.00 0.01 0.00 95 1020.5
20191210113705 44 77 4.0 9.0 0.00 0.01 0.00 95 1020.4
20191210113207 44 113 3.0 9.0 0.00 0.01 0.00 95 1020.6
20191210112705 44 110 3.0 10.0 0.00 0.01 0.00 95 1020.7
20191210112205 44 107 2.0 10.0 0.00 0.01 0.00 95 1020.7
20191210111707 44 112 2.0 10.0 0.00 0.01 0.00 95 1020.6
20191210111207 44 120 3.0 11.0 0.00 0.01 0.00 95 1020.5
20191210110705 44 111 5.0 12.0 0.00 0.01 0.00 95 1020.5
20191210110209 44 120 6.0 12.0 0.00 0.01 0.00 95 1020.6
20191210105706 44 68 5.0 13.0 0.00 0.01 0.00 95 1020.6
20191210105205 44 111 5.0 15.0 0.00 0.01 0.00 95 1020.6
20191210104714 44 128 6.0 15.0 0.00 0.01 0.00 95 1020.7
20191210104214 44 101 6.0 15.0 0.00 0.01 0.00 95 1020.7
20191210103727 44 123 6.0 14.0 0.00 0.01 0.00 95 1020.7
20191210103206 44 98 7.0 15.0 0.00 0.01 0.00 95 1020.8
20191210102708 44 103 6.0 15.0 0.00 0.01 0.00 95 1020.9
20191210102205 44 82 6.0 15.0 0.00 0.01 0.00 95 1020.8
20191210101706 44 102 7.0 13.0 0.00 0.01 0.00 95 1020.8
20191210101205 44 104 6.0 13.0 0.00 0.01 0.00 95 1020.7
20191210100713 44 140 4.0 14.0 0.00 0.01 0.00 96 1020.8
20191210100205 43 141 5.0 15.0 0.00 0.01 0.00 95 1020.9
20191210095705 43 86 7.0 15.0 0.00 0.01 0.00 96 1020.7
20191210095209 43 115 7.0 15.0 0.00 0.01 0.00 95 1020.5
20191210094706 43 74 7.0 15.0 0.00 0.01 0.00 95 1020.9
20191210094206 43 73 7.0 15.0 0.00 0.01 0.00 95 1020.8
20191210093705 43 128 7.0 14.0 0.00 0.01 0.00 95 1020.9
20191210093206 44 122 7.0 14.0 0.00 0.01 0.00 95 1020.9
20191210092707 44 117 8.0 14.0 0.00 0.01 0.00 95 1021.0
20191210092205 44 111 6.0 12.0 0.00 0.01 0.00 95 1021.0
20191210091706 44 130 4.0 11.0 0.00 0.01 0.00 95 1021.0
20191210091205 44 69 4.0 11.0 0.00 0.01 0.00 95 1020.9
20191210090707 44 126 4.0 14.0 0.00 0.01 0.00 95 1020.9
20191210090206 44 146 5.0 14.0 0.00 0.01 0.00 95 1020.8
20191210085706 44 98 6.0 16.0 0.00 0.01 0.00 95 1020.7
20191210085207 44 145 7.0 16.0 0.00 0.01 0.00 95 1020.7
20191210084706 44 157 8.0 13.0 0.00 0.01 0.00 94 1020.7
20191210084206 44 111 7.0 13.0 0.00 0.01 0.00 95 1020.6
20191210083705 44 109 6.0 13.0 0.00 0.01 0.00 95 1020.7
20191210083205 44 90 5.0 11.0 0.00 0.01 0.00 95 1020.7
20191210082730 44 70 4.0 11.0 0.00 0.01 0.00 95 1020.7
20191210082205 44 101 4.0 11.0 0.00 0.01 0.00 95 1020.7
20191210081706 44 144 4.0 11.0 0.00 0.01 0.00 95 1020.8
20191210081208 44 103 4.0 13.0 0.00 0.01 0.00 95 1020.7
20191210080710 44 98 5.0 13.0 0.00 0.01 0.00 95 1020.6
20191210080208 44 126 6.0 13.0 0.00 0.01 0.01 95 1020.4
20191210075705 44 103 6.0 13.0 0.00 0.01 0.01 95 1020.4
20191210075206 44 116 6.0 11.0 0.00 0.01 0.01 95 1020.5
20191210074715 44 106 6.0 11.0 0.00 0.01 0.01 95 1020.7
20191210074211 44 147 4.0 11.0 0.00 0.01 0.01 95 1020.9
20191210073705 44 82 2.0 11.0 0.00 0.01 0.01 95 1020.8
20191210073208 44 103 3.0 12.0 0.00 0.01 0.01 95 1021.0
20191210072705 44 122 5.0 12.0 0.00 0.01 0.01 95 1020.8
20191210072207 44 74 5.0 12.0 0.00 0.01 0.01 95 1020.6
20191210071708 44 74 4.0 12.0 0.00 0.01 0.01 94 1020.6
20191210071205 44 72 4.0 11.0 0.00 0.01 0.01 94 1020.6
20191210070709 44 104 4.0 13.0 0.00 0.01 0.01 94 1020.7
20191210070208 44 134 5.0 13.0 0.00 0.01 0.01 95 1020.7
20191210065705 44 160 6.0 13.0 0.00 0.01 0.01 94 1020.7
20191210065206 44 115 5.0 15.0 0.00 0.01 0.01 95 1020.7
20191210064706 44 94 6.0 15.0 0.00 0.01 0.01 95 1020.8
20191210064205 44 119 6.0 15.0 0.00 0.01 0.01 95 1020.9
20191210063713 44 111 5.0 12.0 0.00 0.01 0.01 95 1020.8
20191210063205 44 126 6.0 13.0 0.00 0.01 0.01 95 1020.9
20191210062706 44 104 7.0 13.0 0.00 0.01 0.01 95 1020.8
20191210062207 44 85 6.0 14.0 0.00 0.01 0.01 95 1020.8
20191210061731 44 99 6.0 15.0 0.00 0.01 0.01 95 1020.7
20191210061208 44 111 7.0 15.0 0.00 0.01 0.01 95 1020.7
20191210060706 44 142 7.0 15.0 0.00 0.01 0.01 95 1020.8
20191210060212 44 57 7.0 13.0 0.00 0.01 0.01 95 1020.9
20191210055709 44 64 7.0 13.0 0.00 0.01 0.01 95 1020.8
20191210055205 44 117 5.0 13.0 0.00 0.01 0.01 95 1021.0
20191210054711 44 110 3.0 10.0 0.00 0.01 0.01 95 1021.0
20191210054206 44 126 3.0 10.0 0.00 0.01 0.01 95 1021.2
20191210053715 44 101 3.0 10.0 0.00 0.01 0.01 95 1021.2
20191210053206 44 109 4.0 11.0 0.00 0.01 0.01 95 1021.2
20191210052706 44 104 5.0 11.0 0.00 0.01 0.01 95 1021.1
20191210052206 44 148 4.0 11.0 0.00 0.01 0.01 95 1021.1
20191210051706 44 108 3.0 15.0 0.00 0.01 0.01 95 1021.0
20191210051205 44 116 4.0 15.0 0.00 0.01 0.01 95 1020.9
20191210050705 44 111 5.0 15.0 0.00 0.01 0.01 95 1020.9
20191210050205 44 115 3.0 9.0 0.00 0.01 0.01 95 1020.9
20191210045716 43 133 2.0 9.0 0.00 0.01 0.01 95 1020.9
20191210045205 43 123 2.0 9.0 0.00 0.01 0.01 95 1020.9
20191210044706 43 115 3.0 10.0 0.00 0.01 0.01 95 1020.9
20191210044206 43 97 3.0 10.0 0.00 0.01 0.01 95 1020.8
20191210043717 43 73 2.0 10.0 0.00 0.01 0.01 96 1020.9
20191210043207 43 108 2.0 11.0 0.00 0.01 0.01 96 1020.8
20191210042731 43 91 3.0 11.0 0.00 0.01 0.01 95 1020.7
20191210042205 43 106 4.0 11.0 0.00 0.01 0.01 95 1020.7
20191210041706 43 104 5.0 11.0 0.00 0.01 0.01 95 1020.7
20191210041206 43 95 5.0 11.0 0.00 0.01 0.01 96 1020.8
20191210040706 43 103 6.0 11.0 0.00 0.01 0.01 96 1020.9
20191210040205 43 126 5.0 8.0 0.00 0.01 0.01 96 1020.8
20191210035705 43 75 3.0 8.0 0.00 0.01 0.01 96 1020.8
20191210035206 43 105 3.0 9.0 0.00 0.01 0.01 96 1020.9
20191210034716 43 81 3.0 10.0 0.00 0.01 0.01 96 1020.9
20191210034206 43 102 4.0 10.0 0.00 0.01 0.01 96 1020.9
20191210033705 43 76 3.0 10.0 0.00 0.01 0.01 96 1020.9
20191210033206 43 80 3.0 9.0 0.00 0.01 0.01 96 1021.0
20191210032705 43 82 3.0 9.0 0.00 0.01 0.01 96 1021.1
20191210032207 43 91 2.0 9.0 0.00 0.01 0.01 96 1021.1
20191210031706 43 99 2.0 9.0 0.00 0.01 0.01 96 1021.1
20191210031212 43 69 3.0 8.0 0.00 0.01 0.01 96 1021.1
20191210030727 42 108 1.0 7.0 0.00 0.01 0.01 96 1021.1
20191210030205 42 89 0.0 3.0 0.00 0.01 0.01 96 1021.2
20191210025706 42 90 0.0 3.0 0.00 0.01 0.01 96 1021.2
20191210025205 42 74 0.0 3.0 0.00 0.01 0.01 96 1021.3
20191210024717 43 90 0.0 3.0 0.00 0.01 0.01 96 1021.3
20191210024205 43 80 0.0 7.0 0.00 0.01 0.01 96 1021.4
20191210023705 43 82 1.0 8.0 0.00 0.01 0.01 96 1021.4
20191210023206 43 88 3.0 8.0 0.00 0.01 0.01 95 1021.3
20191210022719 43 81 4.0 8.0 0.00 0.01 0.01 96 1021.1
20191210022223 43 91 4.0 8.0 0.00 0.01 0.01 95 1021.2
20191210021705 43 75 4.0 9.0 0.00 0.01 0.01 95 1021.3
20191210021232 43 98 4.0 9.0 0.00 0.01 0.01 95 1021.3
20191210020722 43 86 4.0 9.0 0.00 0.01 0.01 95 1021.3
20191210020206 43 83 4.0 9.0 0.00 0.01 0.01 95 1021.3
20191210015705 43 58 4.0 9.0 0.00 0.01 0.01 95 1021.3
20191210015205 44 77 4.0 9.0 0.00 0.01 0.01 95 1021.2
20191210014714 44 76 4.0 9.0 0.00 0.01 0.01 95 1021.2
20191210014205 44 84 4.0 10.0 0.00 0.01 0.01 95 1021.2
20191210013707 44 68 4.0 10.0 0.00 0.01 0.01 95 1021.2
20191210013206 44 91 3.0 10.0 0.00 0.01 0.01 95 1021.1
20191210012705 44 65 3.0 10.0 0.00 0.01 0.01 95 1021.0
20191210012206 44 81 3.0 10.0 0.00 0.01 0.01 95 1021.1
20191210011733 44 93 2.0 9.0 0.00 0.01 0.01 95 1021.1
20191210011229 44 74 3.0 9.0 0.00 0.01 0.01 95 1021.2
20191210010707 44 57 4.0 9.0 0.00 0.01 0.01 95 1021.3
20191210010205 45 102 3.0 9.0 0.01 0.01 0.01 94 1021.3
20191210005706 45 71 3.0 9.0 0.01 0.01 0.01 94 1021.2